Flag for Germany Weather past 2 weeks in Biberach an der Riss, Baden-Württemberg, Germany

Now
54 °F

Light rain. Passing clouds.


Feels Like: 53 °F
Forecast: 47 / 67 °F
Wind: 5 mph from West

Location: Laupheim Airport

Current Time: Sep 3, 2015 at 10:04:41 PM

Latest Report: Sep 3, 2015 at 9:20 PM


Visibility: 6 mi

Pressure: 30.01 "Hg (28.14 "Hg at 536m altitude)

Humidity: 94%

Dew point: 52 °F

Location of Biberach an der RissLocation

Historic Weather in Biberach an der Riss — Graph

°F

Biberach an der Riss temperature yesterday

Maximum temperature yesterday: 66 °F (at 4:20 PM)
Minimum temperature yesterday: 54 °F (at 6:20 AM)
Average temperature yesterday: 59 °F

Past Weeks' High & Low Weather Summary

 TemperatureHumidityPressure
High90 °F (Aug 30, 3:20 PM)100% (Aug 19, 11:20 PM)30.30 "Hg (Aug 19, 11:20 PM)
Low46 °F (Aug 26, 5:20 AM)24% (Aug 31, 5:20 PM)29.74 "Hg (Aug 24, 8:20 AM)
Average65 °F70%30.06 "Hg
* Reported Aug 19 8:20 PM — Sep 3 8:20 PM, Biberach an der Riss, Weather by CustomWeather, © 2015

Note: Actual official high and low records may vary slightly from our data, if they occured in-between our weather recording intervals... More about our weather records

Advertising

Biberach an der Riss weather history for previous 24 hours

 ConditionsComfort  
Time TempWeatherWind HumidityBarometerVisibility
8:20 PM
Thu, Sep 3
55 °FLight rain. Broken clouds.2 mph88%30.01 "Hg5 mi
7:45 PM55 °FRain. Fog.5 mph88%29.98 "Hg2 mi
7:20 PM55 °FPartly sunny.3 mph88%29.98 "HgN/A
6:20 PM61 °FOvercast.6 mph72%29.98 "HgN/A
5:20 PM61 °FPartly sunny.3 mph68%29.98 "HgN/A
4:20 PM63 °FBroken clouds.2 mph59%29.95 "HgN/A
3:20 PM63 °FBroken clouds.3 mph59%29.98 "HgN/A
2:20 PM61 °FBroken clouds.3 mph72%29.98 "HgN/A
1:20 PM61 °FBroken clouds.No wind77%29.98 "HgN/A
12:20 PM61 °FBroken clouds.2 mph77%29.98 "Hg5 mi
11:20 AM59 °FBroken clouds.2 mph77%29.98 "Hg5 mi
10:20 AM55 °FFog.1 mph94%30.01 "Hg2 mi
10:04 AM55 °FFog.1 mph94%29.98 "Hg2 mi
9:20 AM54 °FFog.3 mph100%29.98 "Hg0 mi
8:20 AM54 °FFog.2 mph94%29.98 "Hg0 mi
7:20 AM52 °FFog.2 mph100%29.95 "Hg0 mi
6:20 AM52 °FFog.2 mph94%29.95 "Hg1 mi
5:20 AM52 °FFog.2 mph100%29.98 "Hg3 mi
4:20 AM52 °FFog.2 mph100%29.98 "Hg4 mi
3:20 AM54 °FPassing clouds.2 mph94%29.98 "Hg4 mi
2:20 AM55 °FPassing clouds.1 mph88%30.01 "HgN/A
1:20 AM54 °FPassing clouds.5 mph94%30.01 "HgN/A
12:20 AM55 °FPassing clouds.3 mph88%30.01 "HgN/A
11:20 PM
Wed, Sep 2
57 °FPassing clouds.3 mph82%30.01 "HgN/A
10:20 PM57 °FPassing clouds.3 mph82%30.01 "HgN/A
Weather by CustomWeather, © 2015

See weather overviewHow to use our weather pages